Location: Perryvale
(54.4667°N, 113.3833°W)
Time: 00:39:00
(UTC+00:00)

Vanguard 1 - Pass Details

Date: 30 May 2024
Orbit: 652 x 3825 km, 34.2° (Epoch: 13 June)

Event Time Altitude Azimuth Distance (km) Brightness Sun altitude
Rises 03:41:47 0° 233° (SW) 4,039 13.4 0.7°
Reaches altitude 10° 03:44:41 10° 220° (SW) 3,418 12.9 0.3°
Maximum altitude 03:51:39 25° 168° (SSE) 3,190 12.3 -0.4°
Drops below altitude 10° 04:02:17 10° 122° (ESE) 5,399 13.2 -1.6°
Sets 04:08:33 0° 112° (ESE) 6,969 13.8 -2.3°
